Weather History for KPNE - November, 2013

Change the Weather History Date:

Saturday, November 2, 2013

  Actual Average Record
Temperature  
Mean Temperature 59 °F -  
Max Temperature 70 °F 57 °F 77 °F (2001)
Min Temperature 50 °F 39 °F 32 °F (2010)
Degree Days  
Heating Degree Days 6    
Growing Degree Days 9 (Base 50)    
Moisture  
Dew Point 47 °F    
Average Humidity 69    
Maximum Humidity 100    
Minimum Humidity 39    
Precipitation  
Precipitation 0.00 in - - ()
Sea Level Pressure  
Sea Level Pressure 29.70 in    
Wind  
Wind Speed 3 mph (NW)    
Max Wind Speed 13 mph    
Max Gust Speed 22 mph    
Visibility 8 miles    
Events      
Averages and records for this station are not official NWS values.
T = Trace of Precipitation, MM = Missing Value Source: NWS Daily Summary

Daily Weather History Graph

Daily Weather History Graph

Search for Another Location

Airport or City:

Trip Planner

Search our weather history database for the weather conditions in past years. The results will help you decide how hot, cold, wet, or windy it might be!

Date:

Astronomy

Nov. 02, 2013 Rise Set
Actual Time 7:30 AM EDT 5:56 PM EDT
Civil Twilight 7:02 AM EDT 6:24 PM EDT
Nautical Twilight 6:30 AM EDT 6:56 PM EDT
Astronomical Twilight 5:58 AM EDT 7:27 PM EDT
Moon 6:25 AM EDT (11/2) 5:25 PM EDT (11/2)
Length of Visible Light 11h 21m
Length of Day
10h 25m
Waning Crescent, 1% of the Moon is Illuminated
Nov 2
Waning Crescent
Nov 3
New
Nov 10
First Quarter
Nov 17
Full
Nov 25
Last Quarter

Hourly Weather History & Observations

Time (EDT) Temp. Dew Point Humidity Pressure Visibility Wind Dir Wind Speed Gust Speed Precip Events Conditions
12:47 AM 55.4 °F 55.4 °F 100% 29.67 in 1.2 mi Calm Calm - N/A   Partly Cloudy
12:54 AM 55.9 °F 55.0 °F 97% 29.67 in 0.8 mi Calm Calm - N/A   Mist
1:05 AM 57.2 °F 55.4 °F 94% 29.67 in 0.8 mi Calm Calm - N/A   Mist
1:11 AM 55.4 °F 53.6 °F 94% 29.67 in 1.0 mi Calm Calm - N/A   Scattered Clouds
1:26 AM 57.2 °F 55.4 °F 94% 29.66 in 2.5 mi Calm Calm - N/A   Mostly Cloudy
1:42 AM 55.4 °F 53.6 °F 94% 29.66 in 4.0 mi North 6.9 mph - N/A   Partly Cloudy
1:54 AM 55.0 °F 54.0 °F 96% 29.67 in 8.0 mi North 4.6 mph - N/A   Clear
2:54 AM 57.0 °F 53.1 °F 87% 29.66 in 10.0 mi NNE 5.8 mph - N/A   Overcast
3:54 AM 55.0 °F 51.1 °F 86% 29.67 in 10.0 mi Calm Calm - N/A   Overcast
4:54 AM 54.0 °F 48.9 °F 83% 29.67 in 10.0 mi NE 3.5 mph - N/A   Scattered Clouds
5:54 AM 54.0 °F 50.0 °F 86% 29.67 in 10.0 mi Calm Calm - N/A   Overcast
6:54 AM 55.0 °F 50.0 °F 83% 29.69 in 10.0 mi Calm Calm - N/A   Mostly Cloudy
7:54 AM 50.0 °F 48.0 °F 93% 29.70 in 10.0 mi Calm Calm - N/A   Scattered Clouds
8:54 AM 57.0 °F 51.1 °F 81% 29.71 in 10.0 mi Calm Calm - N/A   Overcast
9:54 AM 62.1 °F 48.0 °F 60% 29.70 in 10.0 mi NE 3.5 mph - N/A   Unknown
10:54 AM 63.0 °F 46.0 °F 54% 29.69 in 10.0 mi Calm Calm - N/A   Mostly Cloudy
11:54 AM 66.9 °F 44.1 °F 44% 29.68 in 10.0 mi SE 4.6 mph - N/A   Partly Cloudy
12:54 PM 68.0 °F 42.1 °F 39% 29.68 in 10.0 mi Calm Calm - N/A   Clear
1:54 PM 68.0 °F 44.1 °F 42% 29.66 in 10.0 mi West 4.6 mph - N/A   Scattered Clouds
2:54 PM 66.9 °F 44.1 °F 44% 29.66 in 10.0 mi WNW 6.9 mph - N/A   Overcast
3:54 PM 66.9 °F 43.0 °F 42% 29.67 in 10.0 mi WNW 12.7 mph 21.9 mph N/A   Overcast
4:54 PM 64.9 °F 44.1 °F 47% 29.69 in 10.0 mi WNW 11.5 mph - N/A   Overcast
5:54 PM 63.0 °F 42.1 °F 46% 29.72 in 10.0 mi NW 10.4 mph 17.3 mph N/A   Mostly Cloudy
6:54 PM 61.0 °F 39.0 °F 44% 29.74 in 10.0 mi WNW 9.2 mph - N/A   Clear
7:54 PM 59.0 °F 37.9 °F 46% 29.77 in 10.0 mi NW 4.6 mph - N/A   Clear
8:54 PM 57.9 °F 37.9 °F 47% 29.79 in 10.0 mi West 3.5 mph - N/A   Partly Cloudy
9:54 PM 55.9 °F 39.9 °F 55% 29.81 in 10.0 mi West 5.8 mph - N/A   Clear
10:54 PM 55.9 °F 39.9 °F 55% 29.81 in 10.0 mi WNW 8.1 mph - N/A   Clear
11:54 PM 54.0 °F 39.0 °F 57% 29.83 in 10.0 mi WNW 8.1 mph - N/A   Clear